Regional Weather Roundup
Issued by NWS Sterling, VA

Home | Current Version | Previous Version | Graphics & Text | Print | Product List | Glossary On
Versions: 1 2 3 4 5 6 7 8 9 10 11 12 13 14 15 16 17 18 19 20 21 22 23 24 25 26 27 28 29 30 31 32 33 34 35 36 37 38 39 40 41 42 43 44 45 46 47 48 49 50
000
ASUS41 KLWX 290310
RWRLWX

REGIONAL WEATHER ROUNDUP
NATIONAL WEATHER SERVICE BALTIMORE MD/WASHINGTON DC
1100 PM EDT FRI AUG 28 2015

Note: "FAIR" indicates few or no clouds below 12,000 feet
with no significant weather and/or obstructions to visibility.
 TC=TEMPERATURE CELSIUS

 * =Non NWS site. Station does not report precipitation (e.g. rain,
    snow, etc.), thunder, or fog.

DCZ001-MDZ009-015-VAZ040>042-051-053>054-290400-
WASHINGTON METRO

CITY           SKY/WX    TMP DP  RH WIND       PRES   REMARKS
WASHINGTON NAT PTCLDY    73  61  65 S5        30.20S
DULLES         MOCLDY    72  61  68 S6        30.20R
ANDREWS AFB    CLEAR     67  60  78 S3        30.19S
FT BELVOIR     PTCLDY    66  62  88 CALM      30.19S
QUANTICO       PTCLDY    75  62  64 S9        30.20S
COLLEGE PARK*  CLEAR     64  63  94 CALM      30.20S
LEESBURG*      PTCLDY    70  64  83 S5        30.21S
MANASSAS*      CLOUDY    72  64  78 S3        30.20R
GAITHERSBURG*  CLEAR     66  57  72 CALM      30.25R

$$

MDZ006>007-011-014-290400-
BALTIMORE METRO

CITY           SKY/WX    TMP DP  RH WIND       PRES   REMARKS
BWI AIRPORT    CLEAR     65  60  84 CALM      30.19S
MD SCIENCE CTR   N/A     75  57  53 MISG      30.20S
MARTIN STATE   CLEAR     68  64  88 CALM      30.21R
ANNAPOLIS      CLEAR     70  65  84 CALM      30.19S
FORT MEADE*    CLEAR     61  59  94 CALM      30.22S

$$

MDZ012-015-019>023-290400-
MARYLAND EASTERN SHORE

CITY           SKY/WX    TMP DP  RH WIND       PRES   REMARKS
OCEAN CITY     CLEAR     62  57  83 CALM      30.20F
SALISBURY      CLEAR     63  59  87 CALM      30.21S
BAY BRIDGE AP*   N/A     68  61  77 CALM      30.19F

$$

MDZ017>025-290400-
SOUTHERN MARYLAND

CITY           SKY/WX    TMP DP  RH WIND       PRES   REMARKS
PATUXENT RIVER PTCLDY    67  58  72 S6        30.19S
ST INIGOES     CLEAR     64  60  87 SE3       30.19S
LEONARDTOWN*   CLEAR     64  57  77 CALM      30.21F

$$

MDZ003>005-290400-
NORTH CENTRAL MARYLAND

CITY           SKY/WX    TMP DP  RH WIND       PRES   REMARKS
FREDERICK*     NOT AVBL
HAGERSTOWN APT CLEAR     70  57  63 E8        30.20R
WESTMINSTER*   PTCLDY    70  61  73 SE5       30.22R

$$

MDZ501>502-290400-
WESTERN MARYLAND

CITY           SKY/WX    TMP DP  RH WIND       PRES   REMARKS
OAKLAND*       CLEAR     61  52  72 SE3       30.27S
CUMBERLAND*    CLEAR     68  61  77 N5        30.24R

$$

VAZ025>031-290400-
SHENANDOAH VALLEY

CITY           SKY/WX    TMP DP  RH WIND       PRES   REMARKS
WINCHESTER*    MOCLDY    64  59  82 CALM      30.20S
FRONT ROYAL*   MOCLDY    68  61  77 CALM      30.19R
LURAY*         CLOUDY    68  61  77 CALM      30.20S
NEW MARKET*    CLOUDY    68  64  84 CALM      30.19R
STAUNTON*      CLOUDY    70  62  74 CALM      30.23S
WAYNESBORO*    MOCLDY    71  61  70 CALM      30.22S

$$

WVZ021-048>050-054>055-290400-
EASTERN WEST VIRGINIA PANHANDLE

CITY           SKY/WX    TMP DP  RH WIND       PRES   REMARKS
MARTINSBURG    MOCLDY    65  60  84 CALM      30.20R
PETERSBURG*    CLEAR     64  61  88 CALM      30.21R

$$

VAZ036>039-050-290400-
CENTRAL FOOTHILLS

CITY           SKY/WX    TMP DP  RH WIND       PRES   REMARKS
CHARLOTTESVILL CLOUDY    72  63  73 CALM      30.20R
CULPEPER*      CLOUDY    66  64  93 CALM      30.21R
ORANGE*        MOCLDY    70  63  78 CALM      30.21S
GORDONSVILLE*  CLOUDY    68  65  89 W3        30.20R
WARRENTON*     MOCLDY    70  64  81 SE3       30.20R

$$

VAZ055>057-290400-
NORTH AND CENTRAL PIEDMONT

CITY           SKY/WX    TMP DP  RH WIND       PRES   REMARKS
FREDERICKSBRG* PTCLDY    73  62  68 SE3       30.19R
STAFFORD*      CLEAR     65  62  87 CALM      30.24R

$$

NCZ024-NYZ072-PAZ021-071-VAZ022-071-290400-
OTHER REGIONAL OBSERVATIONS

CITY           SKY/WX    TMP DP  RH WIND       PRES   REMARKS
NEW YORK CITY  CLEAR     73  52  47 CALM      30.22S
PHILADELPHIA   CLEAR     73  58  59 SE3       30.19S
PITTSBURGH     MOCLDY    68  54  60 CALM      30.19R
ROANOKE        PTCLDY    73  61  65 CALM      30.23R
RICHMOND       CLEAR     69  59  70 SE5       30.20S
RALEIGH        MOCLDY    74  60  61 SE6       30.20R

$$

ANZ530>537-290400-
MARINE OBSERVATIONS

STATION/POSITION TIME  TEMP    WIND        PRES
                       AIR SEA DIR/SP/G
                 (UTC) (F)     (DEG/KT/KT) (MB)
THOMAS PT LIGHT  NOT AVBL

$$



USA.gov is the U.S. government's official web portal to all federal, state and local government web resources and services.